Time,TemperatureF,DewpointF,PressureIn,WindDirection,WindDirectionDegrees,WindSpeedMPH,WindSpeedGustMPH,Humidity,HourlyPrecipIn,Conditions,Clouds,dailyrainin,SolarRadiationWatts/m^2,SoftwareType,DateUTC
2015-02-01 00:03:00,32.4,31.1,30.16,SSE,155,0.0,0.0,95,0.00,,,0.00,0.0,meteobridge,2015-02-01 06:03:00,
2015-02-01 00:08:00,32.4,31.1,30.16,SSE,155,0.0,0.0,95,0.00,,,0.00,0.0,meteobridge,2015-02-01 06:08:00,
2015-02-01 00:13:00,32.4,31.1,30.16,SSE,155,0.0,0.0,95,0.00,,,0.00,0.0,meteobridge,2015-02-01 06:13:00,
2015-02-01 00:23:00,32.4,31.1,30.15,East,80,0.0,0.0,95,0.00,,,0.00,0.0,meteobridge,2015-02-01 06:23:00,
2015-02-01 00:28:00,32.4,31.1,30.15,ESE,103,0.0,0.0,95,0.00,,,0.00,0.0,meteobridge,2015-02-01 06:28:00,
2015-02-01 00:33:00,32.4,31.1,30.15,East,90,0.0,0.0,95,0.00,,,0.00,0.0,meteobridge,2015-02-01 06:33:00,
2015-02-01 00:38:00,32.4,31.1,30.14,East,98,0.0,0.0,95,0.00,,,0.00,0.0,meteobridge,2015-02-01 06:38:00,
2015-02-01 00:43:00,32.2,30.9,30.14,East,82,0.0,0.0,95,0.00,,,0.00,0.0,meteobridge,2015-02-01 06:43:00,
2015-02-01 00:48:00,32.2,30.9,30.14,East,90,0.0,0.0,95,0.00,,,0.00,0.0,meteobridge,2015-02-01 06:48:00,
2015-02-01 00:53:00,32.2,30.9,30.14,ENE,74,0.0,0.0,95,0.00,,,0.00,0.0,meteobridge,2015-02-01 06:53:00,
2015-02-01 00:59:00,32.2,30.9,30.14,ENE,67,0.0,0.0,95,0.00,,,0.00,0.0,meteobridge,2015-02-01 06:59:00,
2015-02-01 01:04:00,32.2,30.9,30.13,East,92,0.0,0.0,95,0.00,,,0.00,0.0,meteobridge,2015-02-01 07:04:00,
2015-02-01 01:09:00,32.0,30.7,30.13,East,95,0.0,0.0,95,0.00,,,0.00,0.0,meteobridge,2015-02-01 07:09:00,
2015-02-01 01:14:00,32.0,30.7,30.13,ENE,66,0.0,0.0,95,0.00,,,0.00,0.0,meteobridge,2015-02-01 07:14:00,
2015-02-01 01:19:00,32.0,30.7,30.12,ENE,71,0.0,0.0,95,0.00,,,0.00,0.0,meteobridge,2015-02-01 07:19:00,
2015-02-01 01:24:00,32.0,30.7,30.12,East,84,0.0,0.0,95,0.00,,,0.00,0.0,meteobridge,2015-02-01 07:24:00,
2015-02-01 01:29:00,32.0,30.9,30.12,ENE,69,0.0,0.0,96,0.00,,,0.00,0.0,meteobridge,2015-02-01 07:29:00,
2015-02-01 01:34:00,32.0,30.9,30.12,ESE,103,0.0,0.0,96,0.00,,,0.00,0.0,meteobridge,2015-02-01 07:34:00,
2015-02-01 01:39:00,32.0,30.9,30.12,ENE,75,0.0,0.0,96,0.00,,,0.00,0.0,meteobridge,2015-02-01 07:39:00,
2015-02-01 01:44:00,31.8,30.7,30.12,ENE,75,0.0,0.0,96,0.00,,,0.00,0.0,meteobridge,2015-02-01 07:44:00,
2015-02-01 01:49:00,31.8,30.6,30.12,ENE,59,0.0,0.0,95,0.00,,,0.00,0.0,meteobridge,2015-02-01 07:49:00,
2015-02-01 01:54:00,31.8,30.7,30.12,ENE,76,0.0,0.0,96,0.00,,,0.00,0.0,meteobridge,2015-02-01 07:54:00,
2015-02-01 01:59:00,31.8,30.7,30.11,NE,53,0.0,0.0,96,0.00,,,0.00,0.0,meteobridge,2015-02-01 07:59:00,
2015-02-01 02:04:00,31.8,30.6,30.11,East,96,0.0,0.0,95,0.00,,,0.00,0.0,meteobridge,2015-02-01 08:04:00,
2015-02-01 02:09:00,31.8,30.7,30.11,East,98,0.0,0.0,96,0.00,,,0.00,0.0,meteobridge,2015-02-01 08:09:00,
2015-02-01 02:14:00,31.8,30.7,30.11,ENE,74,0.0,0.0,96,0.00,,,0.00,0.0,meteobridge,2015-02-01 08:14:00,
2015-02-01 02:19:00,31.8,30.7,30.10,NE,55,0.0,0.0,96,0.00,,,0.00,0.0,meteobridge,2015-02-01 08:19:00,
2015-02-01 02:24:00,31.8,30.7,30.10,ENE,68,0.0,0.0,96,0.00,,,0.00,0.0,meteobridge,2015-02-01 08:24:00,
2015-02-01 02:30:00,31.6,30.6,30.09,ENE,71,0.0,0.0,96,0.00,,,0.00,0.0,meteobridge,2015-02-01 08:30:00,
2015-02-01 02:35:00,31.6,30.6,30.09,East,96,0.0,0.0,96,0.00,,,0.00,0.0,meteobridge,2015-02-01 08:35:00,
2015-02-01 02:40:00,31.6,30.6,30.09,ENE,57,0.0,0.0,96,0.00,,,0.00,0.0,meteobridge,2015-02-01 08:40:00,
2015-02-01 02:45:00,31.6,30.6,30.09,East,90,0.0,0.0,96,0.00,,,0.00,0.0,meteobridge,2015-02-01 08:45:00,
2015-02-01 02:50:00,31.6,30.6,30.09,East,94,0.0,0.0,96,0.00,,,0.00,0.0,meteobridge,2015-02-01 08:50:00,
2015-02-01 02:55:00,31.6,30.6,30.08,East,80,0.0,0.0,96,0.00,,,0.00,0.0,meteobridge,2015-02-01 08:55:00,
2015-02-01 03:00:00,31.6,30.6,30.08,East,91,0.0,0.0,96,0.00,,,0.00,0.0,meteobridge,2015-02-01 09:00:00,
2015-02-01 03:05:00,31.6,30.6,30.08,East,84,0.0,0.0,96,0.00,,,0.00,0.0,meteobridge,2015-02-01 09:05:00,
2015-02-01 03:10:00,31.6,30.6,30.07,East,92,0.0,0.0,96,0.00,,,0.00,0.0,meteobridge,2015-02-01 09:10:00,
2015-02-01 03:15:00,31.6,30.6,30.07,East,80,0.0,0.0,96,0.00,,,0.00,0.0,meteobridge,2015-02-01 09:15:00,
2015-02-01 03:20:00,31.5,30.4,30.06,NE,54,0.0,0.0,96,0.00,,,0.00,0.0,meteobridge,2015-02-01 09:20:00,
2015-02-01 03:25:00,31.5,30.4,30.06,ENE,78,0.0,0.0,96,0.00,,,0.00,0.0,meteobridge,2015-02-01 09:25:00,
2015-02-01 03:30:00,31.5,30.4,30.06,ENE,74,0.0,0.0,96,0.00,,,0.00,0.0,meteobridge,2015-02-01 09:30:00,
2015-02-01 03:35:00,31.5,30.4,30.06,ENE,61,0.0,0.0,96,0.00,,,0.00,0.0,meteobridge,2015-02-01 09:35:00,
2015-02-01 03:40:00,31.5,30.4,30.06,East,79,0.0,0.0,96,0.00,,,0.00,0.0,meteobridge,2015-02-01 09:40:00,
2015-02-01 03:46:00,31.5,30.4,30.06,East,96,0.0,0.0,96,0.00,,,0.00,0.0,meteobridge,2015-02-01 09:46:00,
2015-02-01 03:51:00,31.5,30.4,30.06,East,91,0.0,0.0,96,0.00,,,0.00,0.0,meteobridge,2015-02-01 09:51:00,
2015-02-01 03:56:00,31.5,30.4,30.06,East,79,0.0,0.0,96,0.00,,,0.00,0.0,meteobridge,2015-02-01 09:56:00,
2015-02-01 04:01:00,31.5,30.4,30.06,ENE,73,0.0,0.0,96,0.00,,,0.00,0.0,meteobridge,2015-02-01 10:01:00,
2015-02-01 04:06:00,31.5,30.4,30.06,East,93,0.0,0.0,96,0.00,,,0.00,0.0,meteobridge,2015-02-01 10:06:00,
2015-02-01 04:11:00,31.3,30.2,30.06,ENE,78,0.0,0.0,96,0.00,,,0.00,0.0,meteobridge,2015-02-01 10:11:00,
2015-02-01 04:16:00,31.3,30.2,30.06,ENE,75,0.0,0.0,96,0.00,,,0.00,0.0,meteobridge,2015-02-01 10:16:00,
2015-02-01 04:21:00,31.3,30.2,30.05,East,89,0.0,0.0,96,0.00,,,0.00,0.0,meteobridge,2015-02-01 10:21:00,
2015-02-01 04:26:00,31.3,30.2,30.05,East,84,0.0,0.0,96,0.00,,,0.00,0.0,meteobridge,2015-02-01 10:26:00,
2015-02-01 04:31:00,31.3,30.2,30.05,East,94,0.0,0.0,96,0.00,,,0.00,0.0,meteobridge,2015-02-01 10:31:00,
2015-02-01 04:36:00,31.3,30.2,30.04,East,82,0.0,0.0,96,0.00,,,0.00,0.0,meteobridge,2015-02-01 10:36:00,
2015-02-01 04:41:00,31.3,30.2,30.03,ENE,62,0.0,0.0,96,0.00,,,0.00,0.0,meteobridge,2015-02-01 10:41:00,
2015-02-01 04:46:00,31.3,30.2,30.03,East,95,0.0,0.0,96,0.00,,,0.00,0.0,meteobridge,2015-02-01 10:46:00,
2015-02-01 04:52:00,31.3,30.2,30.03,ENE,66,0.0,0.0,96,0.00,,,0.00,0.0,meteobridge,2015-02-01 10:52:00,
2015-02-01 04:57:00,31.1,30.0,30.03,ENE,60,0.0,0.0,96,0.00,,,0.00,0.0,meteobridge,2015-02-01 10:57:00,
2015-02-01 05:02:00,31.1,30.0,30.03,East,92,0.0,0.0,96,0.00,,,0.00,0.0,meteobridge,2015-02-01 11:02:00,
2015-02-01 05:07:00,31.1,30.0,30.03,East,83,0.0,0.0,96,0.00,,,0.00,0.0,meteobridge,2015-02-01 11:07:00,
2015-02-01 05:12:00,31.1,30.0,30.03,East,89,0.0,0.0,96,0.00,,,0.00,0.0,meteobridge,2015-02-01 11:12:00,
2015-02-01 05:17:00,30.9,29.8,30.03,ENE,65,0.0,0.0,96,0.00,,,0.00,0.0,meteobridge,2015-02-01 11:17:00,
2015-02-01 05:22:00,30.9,29.8,30.02,ENE,58,0.0,0.0,96,0.00,,,0.00,0.0,meteobridge,2015-02-01 11:22:00,
2015-02-01 05:27:00,30.9,29.8,30.02,ENE,78,0.0,0.0,96,0.00,,,0.00,0.0,meteobridge,2015-02-01 11:27:00,
2015-02-01 05:32:00,30.9,29.8,30.01,ENE,73,0.0,0.0,96,0.00,,,0.00,0.0,meteobridge,2015-02-01 11:32:00,
2015-02-01 05:37:00,30.9,29.8,30.01,East,99,0.0,0.0,96,0.00,,,0.00,0.0,meteobridge,2015-02-01 11:37:00,
2015-02-01 05:42:00,30.9,29.8,30.01,ENE,67,0.0,0.0,96,0.00,,,0.00,0.0,meteobridge,2015-02-01 11:42:00,
2015-02-01 05:47:00,30.9,29.8,30.01,ENE,61,0.0,0.0,96,0.00,,,0.00,0.0,meteobridge,2015-02-01 11:47:00,
2015-02-01 05:52:00,30.9,29.8,30.00,ENE,65,0.0,0.0,96,0.00,,,0.00,0.0,meteobridge,2015-02-01 11:52:00,
2015-02-01 05:58:00,30.9,29.8,29.99,ENE,61,0.0,0.0,96,0.00,,,0.00,0.0,meteobridge,2015-02-01 11:58:00,
2015-02-01 06:03:00,30.9,29.8,29.99,ESE,105,0.0,0.0,96,0.00,,,0.00,0.0,meteobridge,2015-02-01 12:03:00,
2015-02-01 06:08:00,30.9,29.8,29.98,ENE,76,0.0,0.0,96,0.00,,,0.00,0.0,meteobridge,2015-02-01 12:08:00,
2015-02-01 06:13:00,30.9,29.8,29.97,East,86,0.0,0.0,96,0.00,,,0.00,0.0,meteobridge,2015-02-01 12:13:00,
2015-02-01 06:18:00,30.9,29.8,29.97,East,92,0.0,0.0,96,0.00,,,0.00,0.0,meteobridge,2015-02-01 12:18:00,
2015-02-01 06:23:00,30.9,29.8,29.97,ENE,58,0.0,0.0,96,0.00,,,0.00,0.0,meteobridge,2015-02-01 12:23:00,
2015-02-01 06:28:00,30.9,29.8,29.96,ENE,71,0.0,0.0,96,0.00,,,0.00,0.0,meteobridge,2015-02-01 12:28:00,
2015-02-01 06:33:00,30.9,29.8,29.96,East,87,0.0,0.0,96,0.00,,,0.00,0.0,meteobridge,2015-02-01 12:33:00,
2015-02-01 06:38:00,30.9,29.8,29.96,East,88,0.0,0.0,96,0.00,,,0.00,0.0,meteobridge,2015-02-01 12:38:00,
2015-02-01 06:43:00,30.9,29.8,29.96,ENE,74,0.0,0.0,96,0.00,,,0.00,0.0,meteobridge,2015-02-01 12:43:00,
2015-02-01 06:48:00,30.9,29.8,29.96,ENE,70,0.0,0.0,96,0.00,,,0.00,0.0,meteobridge,2015-02-01 12:48:00,
2015-02-01 06:53:00,31.1,30.0,29.96,ENE,76,0.0,0.0,96,0.01,,,0.01,0.0,meteobridge,2015-02-01 12:53:00,
2015-02-01 06:58:00,31.1,30.0,29.95,ENE,75,0.0,0.0,96,0.01,,,0.01,0.0,meteobridge,2015-02-01 12:58:00,
2015-02-01 07:03:00,31.1,30.0,29.95,ENE,59,0.0,0.0,96,0.01,,,0.01,0.0,meteobridge,2015-02-01 13:03:00,
2015-02-01 07:09:00,31.1,30.0,29.95,NE,56,0.0,0.0,96,0.01,,,0.01,0.0,meteobridge,2015-02-01 13:09:00,
2015-02-01 07:14:00,31.3,30.2,29.95,ENE,72,0.0,0.0,96,0.01,,,0.01,0.0,meteobridge,2015-02-01 13:14:00,
2015-02-01 07:19:00,31.3,30.2,29.94,ENE,61,0.0,0.0,96,0.01,,,0.01,0.0,meteobridge,2015-02-01 13:19:00,
2015-02-01 07:24:00,31.3,30.2,29.93,ENE,71,0.0,0.0,96,0.01,,,0.01,0.0,meteobridge,2015-02-01 13:24:00,
2015-02-01 07:29:00,31.3,30.2,29.93,NE,51,0.0,0.0,96,0.01,,,0.01,0.0,meteobridge,2015-02-01 13:29:00,
2015-02-01 07:34:00,31.3,30.2,29.93,ENE,63,0.0,0.0,96,0.01,,,0.01,0.0,meteobridge,2015-02-01 13:34:00,
2015-02-01 07:39:00,31.5,30.4,29.93,East,90,0.0,0.0,96,0.01,,,0.01,0.0,meteobridge,2015-02-01 13:39:00,
2015-02-01 07:44:00,31.5,30.4,29.93,ENE,71,0.0,0.0,96,0.01,,,0.01,5.0,meteobridge,2015-02-01 13:44:00,
2015-02-01 07:49:00,31.5,30.4,29.93,East,95,0.0,0.0,96,0.01,,,0.01,5.0,meteobridge,2015-02-01 13:49:00,
2015-02-01 07:54:00,31.5,30.4,29.93,NE,47,0.0,0.0,96,0.00,,,0.01,5.0,meteobridge,2015-02-01 13:54:00,
2015-02-01 08:00:00,31.5,30.4,29.93,NE,53,0.0,0.0,96,0.00,,,0.01,5.0,meteobridge,2015-02-01 14:00:00,
2015-02-01 08:05:00,31.6,30.6,29.93,ENE,61,0.0,0.0,96,0.00,,,0.01,7.0,meteobridge,2015-02-01 14:05:00,
2015-02-01 08:10:00,31.6,30.6,29.92,ENE,76,0.0,0.0,96,0.00,,,0.01,9.0,meteobridge,2015-02-01 14:10:00,
2015-02-01 08:15:00,31.6,30.6,29.92,ENE,67,0.0,0.0,96,0.00,,,0.01,9.0,meteobridge,2015-02-01 14:15:00,
2015-02-01 08:20:00,31.6,30.6,29.92,ENE,65,0.0,0.0,96,0.00,,,0.01,11.0,meteobridge,2015-02-01 14:20:00,
2015-02-01 08:25:00,31.6,30.6,29.92,ENE,78,0.0,0.0,96,0.00,,,0.01,11.0,meteobridge,2015-02-01 14:25:00,
2015-02-01 08:30:00,31.6,30.6,29.92,ENE,66,0.0,0.0,96,0.00,,,0.01,11.0,meteobridge,2015-02-01 14:30:00,
2015-02-01 08:35:00,31.6,30.6,29.92,East,82,0.0,0.0,96,0.00,,,0.01,12.0,meteobridge,2015-02-01 14:35:00,
2015-02-01 08:40:00,31.6,30.6,29.92,ENE,59,0.0,0.0,96,0.00,,,0.01,16.0,meteobridge,2015-02-01 14:40:00,
2015-02-01 08:45:00,31.8,30.7,29.91,ENE,58,0.0,0.0,96,0.00,,,0.01,18.0,meteobridge,2015-02-01 14:45:00,
2015-02-01 08:50:00,31.8,30.7,29.91,ENE,71,0.0,0.0,96,0.00,,,0.01,18.0,meteobridge,2015-02-01 14:50:00,
2015-02-01 08:55:00,31.8,30.7,29.91,ENE,68,0.0,0.0,96,0.00,,,0.01,21.0,meteobridge,2015-02-01 14:55:00,
2015-02-01 09:00:00,31.8,30.7,29.91,ENE,74,0.0,0.0,96,0.00,,,0.01,21.0,meteobridge,2015-02-01 15:00:00,
2015-02-01 09:05:00,31.8,30.7,29.91,ENE,64,0.0,0.0,96,0.00,,,0.01,23.0,meteobridge,2015-02-01 15:05:00,
2015-02-01 09:10:00,31.8,30.7,29.91,NE,51,0.0,0.0,96,0.00,,,0.01,23.0,meteobridge,2015-02-01 15:10:00,
2015-02-01 09:15:00,31.8,30.7,29.90,ENE,63,0.0,0.0,96,0.00,,,0.01,23.0,meteobridge,2015-02-01 15:15:00,
2015-02-01 09:20:00,31.8,30.7,29.90,ENE,65,0.0,0.0,96,0.00,,,0.01,25.0,meteobridge,2015-02-01 15:20:00,
2015-02-01 09:25:00,31.8,30.7,29.90,ENE,74,0.0,0.0,96,0.00,,,0.01,23.0,meteobridge,2015-02-01 15:25:00,
2015-02-01 09:30:00,31.8,30.7,29.90,East,88,0.0,0.0,96,0.00,,,0.01,25.0,meteobridge,2015-02-01 15:30:00,
2015-02-01 09:35:00,31.8,30.7,29.90,ENE,59,0.0,0.0,96,0.00,,,0.01,26.0,meteobridge,2015-02-01 15:35:00,
2015-02-01 09:40:00,31.8,30.7,29.89,ENE,71,0.0,0.0,96,0.00,,,0.01,26.0,meteobridge,2015-02-01 15:40:00,
2015-02-01 09:45:00,31.8,30.7,29.89,ENE,65,0.0,0.0,96,0.00,,,0.01,26.0,meteobridge,2015-02-01 15:45:00,
2015-02-01 09:51:00,31.8,30.7,29.89,ENE,57,0.0,0.0,96,0.00,,,0.01,30.0,meteobridge,2015-02-01 15:51:00,
2015-02-01 09:56:00,31.8,30.7,29.89,NE,53,0.0,0.0,96,0.00,,,0.01,32.0,meteobridge,2015-02-01 15:56:00,
2015-02-01 10:01:00,31.8,30.7,29.88,ENE,67,0.0,0.0,96,0.00,,,0.01,42.0,meteobridge,2015-02-01 16:01:00,
2015-02-01 10:06:00,32.0,30.9,29.87,ENE,65,4.9,14.0,96,0.00,,,0.01,56.0,meteobridge,2015-02-01 16:06:00,
2015-02-01 10:11:00,31.8,30.7,29.86,ENE,78,8.9,12.0,96,0.00,,,0.01,49.0,meteobridge,2015-02-01 16:11:00,
2015-02-01 10:16:00,31.8,30.7,29.86,NE,41,6.9,12.0,96,0.00,,,0.01,47.0,meteobridge,2015-02-01 16:16:00,
2015-02-01 10:21:00,31.8,30.7,29.86,NE,51,6.9,12.0,96,0.00,,,0.01,49.0,meteobridge,2015-02-01 16:21:00,
2015-02-01 10:26:00,31.8,30.7,29.85,ENE,68,8.9,9.0,96,0.00,,,0.01,58.0,meteobridge,2015-02-01 16:26:00,
2015-02-01 10:31:00,31.8,30.7,29.85,ENE,71,4.9,13.0,96,0.00,,,0.01,69.0,meteobridge,2015-02-01 16:31:00,
2015-02-01 10:36:00,32.0,30.9,29.85,NE,51,6.0,13.0,96,0.00,,,0.01,67.0,meteobridge,2015-02-01 16:36:00,
2015-02-01 10:41:00,31.8,30.7,29.84,ENE,67,4.9,13.0,96,0.00,,,0.01,72.0,meteobridge,2015-02-01 16:41:00,
2015-02-01 10:46:00,31.8,30.7,29.83,ENE,78,10.1,17.0,96,0.00,,,0.01,56.0,meteobridge,2015-02-01 16:46:00,
2015-02-01 10:51:00,31.6,30.6,29.83,ENE,78,10.1,17.0,96,0.00,,,0.01,46.0,meteobridge,2015-02-01 16:51:00,
2015-02-01 10:56:00,31.6,30.6,29.82,ENE,65,10.1,13.0,96,0.00,,,0.01,42.0,meteobridge,2015-02-01 16:56:00,
2015-02-01 11:01:00,31.6,30.6,29.83,ENE,72,6.0,13.0,96,0.00,,,0.01,42.0,meteobridge,2015-02-01 17:01:00,
2015-02-01 11:06:00,31.5,30.4,29.82,ESE,105,8.9,17.0,96,0.00,,,0.01,40.0,meteobridge,2015-02-01 17:06:00,
2015-02-01 11:11:00,30.9,29.8,29.83,East,79,8.9,15.0,96,0.00,,,0.01,49.0,meteobridge,2015-02-01 17:11:00,
2015-02-01 11:16:00,30.7,29.5,29.82,NE,53,8.9,18.0,95,0.00,,,0.01,70.0,meteobridge,2015-02-01 17:16:00,
2015-02-01 11:21:00,30.7,29.7,29.80,ENE,66,10.1,12.0,96,0.00,,,0.01,86.0,meteobridge,2015-02-01 17:21:00,
2015-02-01 11:26:00,30.7,29.7,29.80,ENE,78,10.1,16.0,96,0.00,,,0.01,69.0,meteobridge,2015-02-01 17:26:00,
2015-02-01 11:31:00,30.6,29.3,29.80,ENE,74,8.1,14.0,95,0.00,,,0.01,51.0,meteobridge,2015-02-01 17:31:00,
2015-02-01 11:36:00,30.6,29.3,29.80,ENE,69,4.9,12.0,95,0.00,,,0.01,54.0,meteobridge,2015-02-01 17:36:00,
2015-02-01 11:41:00,30.4,29.3,29.80,East,94,6.9,18.0,96,0.00,,,0.01,46.0,meteobridge,2015-02-01 17:41:00,
2015-02-01 11:46:00,30.2,29.1,29.80,ENE,60,10.1,19.0,96,0.00,,,0.01,51.0,meteobridge,2015-02-01 17:46:00,
2015-02-01 11:50:00,30.0,28.8,29.80,ENE,78,11.0,14.0,95,0.00,,,0.01,58.0,meteobridge,2015-02-01 17:50:00,
2015-02-01 11:55:00,30.0,28.9,29.80,East,88,15.0,16.0,96,0.00,,,0.01,63.0,meteobridge,2015-02-01 17:55:00,
2015-02-01 12:00:00,30.0,28.8,29.79,ENE,74,19.0,19.0,95,0.00,,,0.01,76.0,meteobridge,2015-02-01 18:00:00,
2015-02-01 12:05:00,29.8,28.6,29.79,ENE,73,11.0,18.0,95,0.00,,,0.01,91.0,meteobridge,2015-02-01 18:05:00,
2015-02-01 12:10:00,29.8,28.6,29.78,ENE,67,12.1,16.0,95,0.00,,,0.01,95.0,meteobridge,2015-02-01 18:10:00,
2015-02-01 12:15:00,29.8,28.6,29.77,East,86,11.0,16.0,95,0.00,,,0.01,113.0,meteobridge,2015-02-01 18:15:00,
2015-02-01 12:20:00,29.8,28.6,29.76,NE,43,10.1,18.0,95,0.00,,,0.01,120.0,meteobridge,2015-02-01 18:20:00,
2015-02-01 12:25:00,29.7,28.4,29.76,ENE,76,8.1,21.0,95,0.00,,,0.01,109.0,meteobridge,2015-02-01 18:25:00,
2015-02-01 12:30:00,29.7,28.4,29.75,East,84,11.0,14.0,95,0.00,,,0.01,102.0,meteobridge,2015-02-01 18:30:00,
2015-02-01 12:35:00,29.7,28.4,29.74,ENE,78,16.1,22.0,95,0.00,,,0.01,100.0,meteobridge,2015-02-01 18:35:00,
2015-02-01 12:40:00,29.5,28.2,29.74,NE,49,16.1,19.0,95,0.00,,,0.01,97.0,meteobridge,2015-02-01 18:40:00,
2015-02-01 12:45:00,29.5,28.2,29.75,NE,40,8.9,14.0,95,0.00,,,0.01,79.0,meteobridge,2015-02-01 18:45:00,
2015-02-01 12:51:00,29.3,28.0,29.74,ENE,60,4.9,15.0,95,0.00,,,0.01,88.0,meteobridge,2015-02-01 18:51:00,
2015-02-01 12:56:00,28.9,27.7,29.75,East,80,13.0,16.0,95,0.00,,,0.01,72.0,meteobridge,2015-02-01 18:56:00,
2015-02-01 13:01:00,28.8,27.5,29.75,NE,55,12.1,19.0,95,0.00,,,0.01,69.0,meteobridge,2015-02-01 19:01:00,
2015-02-01 13:06:00,28.6,27.3,29.75,NE,42,4.9,16.0,95,0.00,,,0.01,65.0,meteobridge,2015-02-01 19:06:00,
2015-02-01 13:11:00,28.4,27.1,29.76,NE,38,13.0,15.0,95,0.00,,,0.01,56.0,meteobridge,2015-02-01 19:11:00,
2015-02-01 13:16:00,28.2,27.0,29.75,ENE,64,11.0,21.0,95,0.00,,,0.01,67.0,meteobridge,2015-02-01 19:16:00,
2015-02-01 13:21:00,28.0,26.8,29.75,NE,53,12.1,14.0,95,0.00,,,0.01,53.0,meteobridge,2015-02-01 19:21:00,
2015-02-01 13:26:00,27.9,26.6,29.75,East,82,8.1,15.0,95,0.00,,,0.01,58.0,meteobridge,2015-02-01 19:26:00,
2015-02-01 13:31:00,27.9,26.6,29.75,NNE,14,6.9,16.0,95,0.00,,,0.01,56.0,meteobridge,2015-02-01 19:31:00,
2015-02-01 13:36:00,27.7,26.4,29.74,NE,54,8.9,18.0,95,0.00,,,0.01,63.0,meteobridge,2015-02-01 19:36:00,
2015-02-01 13:41:00,27.5,26.2,29.75,ENE,60,16.1,16.1,95,0.00,,,0.01,56.0,meteobridge,2015-02-01 19:41:00,
2015-02-01 13:46:00,27.3,26.1,29.74,NNE,28,14.1,19.0,95,0.00,,,0.01,60.0,meteobridge,2015-02-01 19:46:00,
2015-02-01 13:51:00,27.3,26.1,29.74,NE,48,13.0,20.0,95,0.00,,,0.01,62.0,meteobridge,2015-02-01 19:51:00,
2015-02-01 13:56:00,27.1,25.9,29.74,NE,56,13.0,16.0,95,0.00,,,0.01,65.0,meteobridge,2015-02-01 19:56:00,
2015-02-01 14:01:00,27.0,25.7,29.74,ESE,104,8.1,15.0,95,0.00,,,0.01,63.0,meteobridge,2015-02-01 20:01:00,
2015-02-01 14:06:00,26.8,25.5,29.74,ENE,58,19.0,19.0,95,0.00,,,0.01,67.0,meteobridge,2015-02-01 20:06:00,
2015-02-01 14:11:00,26.8,25.5,29.73,NE,54,8.9,19.0,95,0.00,,,0.01,67.0,meteobridge,2015-02-01 20:11:00,
2015-02-01 14:16:00,26.8,25.5,29.74,ENE,74,8.9,19.0,95,0.00,,,0.01,58.0,meteobridge,2015-02-01 20:16:00,
2015-02-01 14:21:00,26.6,25.3,29.73,NE,54,12.1,16.0,95,0.00,,,0.01,58.0,meteobridge,2015-02-01 20:21:00,
2015-02-01 14:26:00,26.4,25.2,29.73,NE,38,21.0,28.0,95,0.00,,,0.01,69.0,meteobridge,2015-02-01 20:26:00,
2015-02-01 14:31:00,26.1,24.8,29.72,NE,50,12.1,25.0,95,0.00,,,0.01,72.0,meteobridge,2015-02-01 20:31:00,
2015-02-01 14:36:00,26.1,24.8,29.73,NE,54,14.1,20.0,95,0.00,,,0.01,76.0,meteobridge,2015-02-01 20:36:00,
2015-02-01 14:41:00,26.1,24.8,29.73,NE,49,10.1,16.0,95,0.00,,,0.01,60.0,meteobridge,2015-02-01 20:41:00,
2015-02-01 14:46:00,25.9,24.6,29.73,NE,44,14.1,22.0,95,0.00,,,0.01,58.0,meteobridge,2015-02-01 20:46:00,
2015-02-01 14:51:00,25.7,24.4,29.73,ENE,65,14.1,18.0,95,0.00,,,0.01,49.0,meteobridge,2015-02-01 20:51:00,
2015-02-01 14:56:00,25.5,24.3,29.73,ENE,63,8.1,21.0,95,0.00,,,0.01,51.0,meteobridge,2015-02-01 20:56:00,
2015-02-01 15:01:00,25.3,24.1,29.73,ENE,72,11.0,21.0,95,0.00,,,0.01,46.0,meteobridge,2015-02-01 21:01:00,
2015-02-01 15:06:00,25.2,23.9,29.73,East,90,11.0,25.0,95,0.00,,,0.01,40.0,meteobridge,2015-02-01 21:06:00,
2015-02-01 15:11:00,25.0,23.7,29.73,ENE,63,8.9,17.0,95,0.00,,,0.01,37.0,meteobridge,2015-02-01 21:11:00,
2015-02-01 15:16:00,24.8,23.5,29.74,NNE,29,13.0,25.0,95,0.00,,,0.01,33.0,meteobridge,2015-02-01 21:16:00,
2015-02-01 15:21:00,24.6,23.4,29.74,ENE,74,11.0,25.0,95,0.00,,,0.01,32.0,meteobridge,2015-02-01 21:21:00,
2015-02-01 15:26:00,24.6,23.4,29.74,NE,48,17.0,20.0,95,0.00,,,0.01,33.0,meteobridge,2015-02-01 21:26:00,
2015-02-01 15:31:00,24.4,23.2,29.74,NE,49,19.0,24.0,95,0.00,,,0.01,35.0,meteobridge,2015-02-01 21:31:00,
2015-02-01 15:36:00,24.4,23.2,29.73,ENE,62,19.0,19.0,95,0.00,,,0.01,40.0,meteobridge,2015-02-01 21:36:00,
2015-02-01 15:41:00,24.4,23.2,29.74,ENE,59,19.0,29.0,95,0.00,,,0.01,39.0,meteobridge,2015-02-01 21:41:00,
2015-02-01 15:47:00,24.3,23.0,29.74,ENE,65,12.1,24.0,95,0.00,,,0.01,32.0,meteobridge,2015-02-01 21:47:00,
2015-02-01 15:52:00,24.3,23.0,29.73,NE,48,21.0,21.0,95,0.00,,,0.01,30.0,meteobridge,2015-02-01 21:52:00,
2015-02-01 15:57:00,24.1,22.8,29.73,NE,48,13.0,25.0,95,0.00,,,0.01,30.0,meteobridge,2015-02-01 21:57:00,
2015-02-01 16:02:00,23.7,22.5,29.73,ENE,60,17.9,25.0,95,0.00,,,0.01,26.0,meteobridge,2015-02-01 22:02:00,
2015-02-01 16:07:00,23.5,22.3,29.73,ENE,58,10.1,17.0,95,0.00,,,0.01,23.0,meteobridge,2015-02-01 22:07:00,
2015-02-01 16:12:00,23.4,22.1,29.74,ENE,57,21.9,23.0,95,0.00,,,0.01,18.0,meteobridge,2015-02-01 22:12:00,
2015-02-01 16:17:00,23.2,21.9,29.74,ENE,69,14.1,29.0,95,0.00,,,0.01,16.0,meteobridge,2015-02-01 22:17:00,
2015-02-01 16:22:00,23.0,21.7,29.74,NE,55,14.1,27.0,95,0.00,,,0.01,14.0,meteobridge,2015-02-01 22:22:00,
2015-02-01 16:27:00,22.8,21.6,29.74,ENE,68,21.0,24.0,95,0.00,,,0.01,11.0,meteobridge,2015-02-01 22:27:00,
2015-02-01 16:32:00,22.6,21.2,29.74,ENE,64,19.0,24.0,94,0.00,,,0.01,11.0,meteobridge,2015-02-01 22:32:00,
2015-02-01 16:37:00,22.6,21.2,29.75,NE,55,21.9,23.0,94,0.00,,,0.01,9.0,meteobridge,2015-02-01 22:37:00,
2015-02-01 16:42:00,22.6,21.2,29.75,NE,48,13.0,23.0,94,0.00,,,0.01,5.0,meteobridge,2015-02-01 22:42:00,
2015-02-01 16:47:00,22.6,21.2,29.75,ENE,67,13.0,25.0,94,0.00,,,0.01,5.0,meteobridge,2015-02-01 22:47:00,
2015-02-01 16:52:00,22.6,21.2,29.75,ENE,59,15.0,25.0,94,0.00,,,0.01,7.0,meteobridge,2015-02-01 22:52:00,
2015-02-01 16:57:00,22.6,21.2,29.75,NE,56,12.1,19.0,94,0.00,,,0.01,0.0,meteobridge,2015-02-01 22:57:00,
2015-02-01 17:02:00,22.6,21.2,29.75,ENE,70,16.1,25.0,94,0.00,,,0.01,0.0,meteobridge,2015-02-01 23:02:00,
2015-02-01 17:07:00,22.6,21.2,29.76,ENE,61,19.9,24.0,94,0.00,,,0.01,0.0,meteobridge,2015-02-01 23:07:00,
2015-02-01 17:13:00,22.5,21.0,29.76,NNE,24,12.1,24.0,94,0.00,,,0.01,0.0,meteobridge,2015-02-01 23:13:00,
2015-02-01 17:18:00,22.5,21.0,29.76,NE,40,8.9,23.0,94,0.00,,,0.01,0.0,meteobridge,2015-02-01 23:18:00,
2015-02-01 17:23:00,22.5,21.0,29.76,NE,47,19.9,25.0,94,0.00,,,0.01,0.0,meteobridge,2015-02-01 23:23:00,
2015-02-01 17:28:00,22.3,20.8,29.76,ENE,64,11.0,24.0,94,0.00,,,0.01,0.0,meteobridge,2015-02-01 23:28:00,
2015-02-01 17:33:00,22.3,20.8,29.77,ENE,70,11.0,21.0,94,0.00,,,0.01,0.0,meteobridge,2015-02-01 23:33:00,
2015-02-01 17:38:00,22.3,20.8,29.77,NE,51,17.0,24.0,94,0.00,,,0.01,0.0,meteobridge,2015-02-01 23:38:00,
2015-02-01 17:43:00,22.3,20.8,29.77,NE,38,17.0,23.0,94,0.00,,,0.01,0.0,meteobridge,2015-02-01 23:43:00,
2015-02-01 17:48:00,22.3,20.8,29.77,NE,44,17.9,18.0,94,0.00,,,0.01,0.0,meteobridge,2015-02-01 23:48:00,
2015-02-01 17:53:00,22.1,20.7,29.77,East,82,13.0,25.0,94,0.00,,,0.01,0.0,meteobridge,2015-02-01 23:53:00,
2015-02-01 17:59:00,21.9,20.5,29.78,ENE,65,11.0,20.0,94,0.00,,,0.01,0.0,meteobridge,2015-02-01 23:59:00,
2015-02-01 18:04:00,21.9,20.5,29.78,NE,47,15.0,21.0,94,0.00,,,0.01,0.0,meteobridge,2015-02-02 00:04:00,
2015-02-01 18:09:00,21.7,20.3,29.78,ENE,60,16.1,23.0,94,0.00,,,0.01,0.0,meteobridge,2015-02-02 00:09:00,
2015-02-01 18:14:00,21.7,20.3,29.78,NE,39,13.0,20.0,94,0.00,,,0.01,0.0,meteobridge,2015-02-02 00:14:00,
2015-02-01 18:19:00,21.7,20.3,29.78,ENE,61,13.0,20.0,94,0.00,,,0.01,0.0,meteobridge,2015-02-02 00:19:00,
2015-02-01 18:24:00,21.6,20.1,29.78,NE,52,15.0,26.0,94,0.00,,,0.01,0.0,meteobridge,2015-02-02 00:24:00,
2015-02-01 18:29:00,21.6,20.1,29.78,NE,46,12.1,21.0,94,0.00,,,0.01,0.0,meteobridge,2015-02-02 00:29:00,
2015-02-01 18:34:00,21.6,20.1,29.78,NNE,21,14.1,24.0,94,0.00,,,0.01,0.0,meteobridge,2015-02-02 00:34:00,
2015-02-01 18:39:00,21.6,20.1,29.78,NNE,30,17.0,27.0,94,0.00,,,0.01,0.0,meteobridge,2015-02-02 00:39:00,
2015-02-01 18:44:00,21.4,19.9,29.79,NE,44,11.0,18.0,94,0.00,,,0.01,0.0,meteobridge,2015-02-02 00:44:00,
2015-02-01 18:49:00,21.4,19.9,29.78,NE,49,6.0,18.0,94,0.00,,,0.01,0.0,meteobridge,2015-02-02 00:49:00,
2015-02-01 18:54:00,21.4,19.9,29.78,East,82,10.1,18.0,94,0.00,,,0.01,0.0,meteobridge,2015-02-02 00:54:00,